Flag for Albania Weather past 2 weeks in Tirana, Albania

Now
59 °F

Clear.


Feels Like: 59 °F
Forecast: 55 / 76 °F
Wind: 2 mph from Southeast

Location: Tirana Airport

Current Time: Sep 15, 2014 at 4:58:23 AM

Latest Report: Sep 15, 2014 at 4:20 AM


Visibility: 10 mi

Pressure: 29.98 "Hg

Humidity: 94%

Dew point: 57 °F

Location of TiranaLocation

Historic Weather in Tirana — Graph

°F

Tirana temperature yesterday

Maximum temperature yesterday: 75 °F (at 1:20 PM)
Minimum temperature yesterday: 61 °F (at 10:50 PM)
Average temperature yesterday: 68 °F

Past Weeks' High & Low Weather Summary

 TemperatureHumidityPressure
High90 °F (Sep 1, 11:50 AM)94% (Aug 31, 3:50 AM)30.01 "Hg (Aug 31, 3:50 AM)
Low59 °F (Sep 15, 2:20 AM)33% (Sep 1, 11:50 AM)29.56 "Hg (Sep 1, 9:50 PM)
Average71 °F77%29.86 "Hg
* Reported Aug 31 3:20 AM — Sep 15 3:20 AM, Tirana, Weather by CustomWeather, © 2014

Note: Actual official high and low records may vary slightly from our data, if they occured in-between our weather recording intervals... More about our weather records

Advertising

Tirana weather history for previous 24 hours

 ConditionsComfort  
Time TempWeatherWind HumidityBarometerVisibility
3:20 AM
Sep 15
61 °FPassing clouds.3 mph88%29.98 "HgN/A
2:50 AM61 °FPassing clouds.3 mph88%29.98 "HgN/A
2:20 AM59 °FPassing clouds.2 mph94%29.98 "HgN/A
1:50 AM61 °FPassing clouds.2 mph94%29.98 "HgN/A
1:20 AM61 °FClear.3 mph88%29.98 "Hg10 mi
12:50 AM61 °FClear.5 mph94%29.98 "Hg10 mi
12:20 AM61 °FClear.2 mph88%29.98 "Hg10 mi
11:50 PM
Sep 14
61 °FClear.2 mph94%29.98 "Hg10 mi
11:20 PM63 °FClear.3 mph88%29.98 "Hg10 mi
10:50 PM61 °FClear.3 mph94%29.98 "Hg10 mi
10:20 PM63 °FClear.3 mph88%29.98 "Hg10 mi
9:50 PM63 °FClear.5 mph94%29.98 "Hg10 mi
9:20 PM63 °FClear.No wind88%29.98 "Hg10 mi
8:50 PM64 °FClear.2 mph88%29.98 "Hg10 mi
8:20 PM66 °FClear.3 mph83%29.95 "Hg10 mi
7:50 PM66 °FSunny.No wind78%29.95 "Hg10 mi
7:20 PM68 °FSunny.5 mph73%29.95 "Hg10 mi
6:50 PM70 °FSunny.6 mph69%29.95 "Hg10 mi
6:20 PM72 °FPassing clouds.9 mph61%29.95 "HgN/A
5:50 PM73 °FScattered clouds.8 mph57%29.95 "HgN/A
5:20 PM75 °FScattered clouds.8 mph61%29.92 "HgN/A
4:50 PM73 °FScattered clouds.2 mph74%29.92 "HgN/A
4:20 PM73 °FScattered clouds.2 mph74%29.92 "HgN/A
3:50 PM73 °FScattered clouds.2 mph74%29.95 "HgN/A
3:20 PM75 °FBroken clouds.3 mph78%29.95 "HgN/A
2:50 PM72 °FBroken clouds.6 mph83%29.95 "HgN/A
2:20 PM70 °FBroken clouds.9 mph88%29.95 "HgN/A
1:50 PM73 °FBroken clouds.3 mph69%29.95 "HgN/A
1:20 PM75 °FPartly sunny.2 mph65%29.95 "HgN/A
12:50 PM72 °FThundershowers. Partly sunny.2 mph83%29.95 "HgN/A
12:20 PM70 °FPartly sunny.2 mph83%29.95 "HgN/A
11:50 AM70 °FHeavy rain. More clouds than sun.5 mph83%29.95 "Hg2 mi
11:20 AM73 °FPartly sunny.3 mph74%29.95 "HgN/A
10:50 AM73 °FPartly sunny.2 mph74%29.95 "HgN/A
10:20 AM72 °FPartly sunny.3 mph83%29.95 "HgN/A
9:50 AM70 °FPartly sunny.2 mph88%29.95 "HgN/A
9:20 AM70 °FPartly sunny.3 mph83%29.95 "HgN/A
8:50 AM70 °FBroken clouds.No wind83%29.95 "HgN/A
8:20 AM68 °FBroken clouds.5 mph88%29.92 "HgN/A
7:50 AM66 °FBroken clouds.5 mph94%29.92 "HgN/A
7:20 AM66 °FBroken clouds.2 mph94%29.92 "HgN/A
6:50 AM64 °FPartly cloudy.No wind94%29.92 "Hg4 mi
6:20 AM64 °FPartly cloudy.No wind94%29.95 "Hg4 mi
5:50 AM66 °FPartly cloudy.No wind88%29.95 "Hg4 mi
5:20 AM66 °FPassing clouds.2 mph88%29.95 "Hg4 mi
4:50 AM64 °FPassing clouds.3 mph94%29.95 "Hg4 mi
4:20 AM64 °FPassing clouds.3 mph94%29.95 "Hg6 mi
Weather by CustomWeather, © 2014

See weather overviewHow to use our weather pages